SCP
0 0 0 0 0 0 0 0 0 0 0 0 0 0 0 0 0 0 0 0 0 0 0 0 0 0 0 0 0 0 0 0
0 0 0 0 0 0 0 0 0 0 0 0 0 0 0 0 0 0 0 0 0 0 0 0 0 0 0 0 0 0 0 0
0 0 0 0 0 0 0 0 0 0 0 0 0 0 0 0 0 0 0 0 0 0 0 0 0 0 0 0 0 0 0 0
0 0 0 0 0 0 0 0 0 0 0 0 0 0 0 0 0 0 0 0 0 0 0 0 0 0 0 0 0 0 0 0
0 0 0 0 0 0 0 0 0 0 0 0 0 0 0 0 0 0 0 0 0 0 0 0 0 0 0 0 0 0 0 0
0 0 0 0 0 0 0 0 0 0 0 0 0 0 0 0 0 0 0 0 0 0 0 0 0 0 0 0 0 0 0 0
0 0 0 0 0 0 0 0 0 0 0 0 0 0 0 0 0 0 0 0 0 0 0 0 0 0 0 0 0 0 0 0
0 0 0 0 0 0 0 0 0 0 0 0 0 0 0 0 0 0 0 0 0 0 0 0 0 0 0 0 0 0 0 0
0 0 0 0 0 0 0 0 0 0 0 0 0 0 0 0 0 0 0 0 0 0 0 0 0 0 0 0 0 0 0 0
0 0 0 0 0 0 0 0 0 0 0 0 0 0 0 0 0 0 0 0 0 0 0 0 0 0 0 0 0 0 0 0
0 0 0 0 0 0 0 0 0 0 0 0 0 0 0 0 0 0 0 0 0 0 0 0 0 0 0 0 0 0 0 0
0 0 0 0 0 0 0 0 0 0 0 0 0 0 0 0 0 0 0 0 0 0 0 0 0 0 0 0 0 0 0 0
0 0 0 0 0 0 0 0 0 0 0 0 0 0 0 0 0 0 0 0 0 0 0 0 0 0 0 0 0 0 0 0
0 0 0 0 0 0 0 0 0 0 0 0 0 0 0 0 0 0 0 0 0 0 0 0 0 0 0 0 0 0 0 0
0 0 0 0 0 0 0 0 0 0 0 0 0 0 0 0 0 0 0 0 0 0 0 0 0 0 0 0 0 0 0 0
0 0 0 0 0 0 0 0 0 0 0 0 0 0 0 0 0 0 0 0 0 0 0 0 0 0 0 0 0 0 0 0
0 0 0 0 0 0 0 0 0 0 0 0 0 0 0 0 0 0 0 0 0 0 0 0 0 0 0 0 0 0 0 0
0 0 0 0 0 0 0 0 0 0 0 0 0 0 0 0 0 0 0 0 0 0 0 0 0 0 0 0 0 0 0 0
0 0 0 0 0 0 0 0 0 0 0 0 0 0 0 0 0 0 0 0 0 0 0 0 0 0 0 0 0 0 0 0
0 0 0 0 0 0 0 0 0 0 0 0 0 0 0 0 0 0 0 0 0 0 0 0 0 0 0 0 0 0 0 0
Wind_Speed_500mb
56 62 68 78 79 74 71 68 67 66 66 67 69 68 66 64 63 61 59 53 46 38 38 38 30 28 29 30 30 25 20 15
58 51 52 58 68 68 67 67 69 69 68 67 66 65 65 62 62 59 58 54 48 42 40 40 37 34 33 30 24 19 14 12
51 50 49 53 57 60 62 63 63 63 65 67 67 69 68 67 59 59 54 55 55 48 45 43 38 35 30 25 21 16 15 12
47 52 51 50 52 53 54 55 57 59 59 58 59 60 62 62 60 57 58 56 50 48 42 43 39 35 32 26 20 16 12 12
49 52 50 51 53 53 53 51 49 48 49 47 48 50 54 61 61 62 62 55 49 48 46 43 40 36 29 22 16 15 13 14
53 56 54 52 49 46 45 46 46 48 46 44 44 48 58 61 64 62 58 51 51 52 50 45 39 32 25 19 16 16 15 14
48 54 56 52 49 48 49 48 48 49 47 47 49 57 62 65 64 62 58 56 55 51 45 41 36 29 22 18 18 16 14 14
44 58 59 56 52 53 52 51 51 49 50 53 56 61 65 65 63 61 62 60 56 50 45 39 32 26 21 18 17 15 15 14
41 51 62 59 57 55 55 55 54 55 57 59 62 65 66 64 63 64 61 57 53 48 42 35 29 24 19 17 16 17 16 15
51 49 55 62 62 60 61 61 62 63 63 63 64 67 67 68 67 64 60 56 50 43 38 34 28 23 18 18 20 20 18 18
50 50 49 54 65 68 69 69 70 69 68 66 66 67 67 68 67 63 57 50 47 43 39 33 26 18 19 24 24 24 22 19
47 51 51 48 59 73 74 76 71 69 68 70 70 70 68 66 63 60 56 53 49 43 37 30 20 23 27 29 28 26 23 20
38 40 45 46 52 70 78 75 70 70 73 75 73 72 69 66 63 60 57 54 49 42 34 25 29 27 37 32 29 28 26 24
33 32 34 40 46 60 71 75 72 75 77 77 75 72 70 67 65 64 60 55 48 37 29 36 26 45 38 35 32 32 30 28
21 22 27 33 41 53 62 68 72 78 80 78 77 75 71 69 67 65 62 55 39 34 45 28 46 49 44 40 38 38 36 32
10 8 13 23 34 44 50 60 70 75 77 77 77 75 74 73 71 65 54 40 40 52 36 43 57 51 44 44 42 42 42 37
9 7 6 12 22 32 40 50 62 71 73 74 74 76 76 75 70 61 50 56 59 47 49 57 56 51 51 49 46 50 49 44
12 10 7 5 8 17 27 40 51 60 66 71 74 72 70 70 71 70 67 65 64 59 52 60 55 53 54 54 53 59 53 50
13 11 10 8 5 11 24 36 47 55 61 65 68 75 78 79 79 70 75 74 65 50 64 62 59 58 57 56 63 63 55 54
16 13 9 6 7 11 20 33 45 53 60 66 70 74 77 76 74 73 71 70 66 63 60 62 60 58 59 61 66 58 56 55
Wind_Direction_500mb
254 253 248 238 233 229 227 226 228 228 230 232 234 236 237 233 229 224 232 232 235 236 239 229 225 236 237 225 231 240 238 245
258 251 241 230 227 225 223 222 223 224 225 230 233 235 235 230 225 220 227 224 226 229 227 231 232 227 225 228 218 213 221 233
247 236 225 220 220 221 220 221 221 224 227 231 234 235 232 226 215 214 215 217 222 225 224 230 217 219 215 206 201 204 222 241
232 224 219 215 220 224 226 226 227 229 231 231 228 224 219 209 203 205 208 209 211 220 217 205 202 198 193 192 203 216 234 265
234 226 218 217 222 226 229 228 227 225 221 215 211 206 201 195 199 202 201 207 210 203 197 193 188 187 191 195 214 236 257 276
237 227 224 222 221 225 225 224 219 214 209 202 198 193 191 195 197 195 204 205 198 194 188 186 185 189 196 211 229 246 264 280
247 235 230 228 225 222 220 218 214 212 206 199 195 191 193 195 197 198 198 193 192 188 188 186 190 194 205 221 238 252 270 284
261 244 236 233 228 221 217 215 213 210 207 203 199 196 195 196 197 196 193 190 188 187 189 192 197 202 213 227 240 263 276 279
278 257 245 235 227 221 217 216 213 210 207 205 202 199 197 197 195 193 192 191 191 191 192 196 203 214 221 238 257 265 264 255
273 271 254 242 231 223 219 216 213 210 207 204 201 198 196 194 193 193 193 194 195 194 198 203 211 216 227 254 261 255 246 237
274 275 266 245 234 227 222 218 216 211 207 203 200 199 199 198 196 197 196 197 198 200 201 207 212 228 246 256 252 246 237 241
269 267 266 251 233 228 225 224 220 213 207 205 203 203 202 201 201 199 198 198 201 204 208 212 232 236 254 247 244 241 245 257
276 269 258 250 239 230 228 226 219 213 209 206 204 203 202 203 201 200 201 203 204 207 211 235 230 262 247 242 241 247 256 264
280 272 259 248 241 235 231 226 219 213 210 207 205 205 204 204 205 205 204 206 207 214 233 229 257 251 242 241 243 248 253 260
285 273 263 253 243 235 232 226 219 215 211 208 207 206 207 207 209 210 209 206 216 231 231 242 256 242 241 243 245 248 254 261
311 283 257 254 250 243 234 225 218 214 212 209 209 210 210 210 212 211 207 231 243 229 232 254 248 244 243 246 248 253 259 265
32 3 309 269 255 246 234 224 218 214 212 212 213 213 213 214 210 208 237 235 225 231 245 251 244 240 245 249 251 256 262 267
50 39 15 330 267 241 231 222 218 219 219 218 219 219 218 219 215 245 231 223 233 227 245 247 248 246 249 252 255 259 264 267
27 21 13 358 329 250 230 225 220 220 223 226 228 227 225 227 234 227 225 231 225 246 248 246 247 248 250 253 256 261 265 267
20 20 18 355 313 268 250 242 235 234 234 233 234 232 231 233 233 232 233 232 236 239 240 249 250 252 253 254 260 263 265 269
Wind_Speed_850mb
56 62 68 78 79 74 71 68 67 66 66 67 69 68 66 64 63 61 59 53 46 38 38 38 30 28 29 30 30 25 20 15
58 51 52 58 68 68 67 67 69 69 68 67 66 65 65 62 62 59 58 54 48 42 40 40 37 34 33 30 24 19 14 12
51 50 49 53 57 60 62 63 63 63 65 67 67 69 68 67 59 59 54 55 55 48 45 43 38 35 30 25 21 16 15 12
47 52 51 50 52 53 54 55 57 59 59 58 59 60 62 62 60 57 58 56 50 48 42 43 39 35 32 26 20 16 12 12
49 52 50 51 53 53 53 51 49 48 49 47 48 50 54 61 61 62 62 55 49 48 46 43 40 36 29 22 16 15 13 14
53 56 54 52 49 46 45 46 46 48 46 44 44 48 58 61 64 62 58 51 51 52 50 45 39 32 25 19 16 16 15 14
48 54 56 52 49 48 49 48 48 49 47 47 49 57 62 65 64 62 58 56 55 51 45 41 36 29 22 18 18 16 14 14
44 58 59 56 52 53 52 51 51 49 50 53 56 61 65 65 63 61 62 60 56 50 45 39 32 26 21 18 17 15 15 14
41 51 62 59 57 55 55 55 54 55 57 59 62 65 66 64 63 64 61 57 53 48 42 35 29 24 19 17 16 17 16 15
51 49 55 62 62 60 61 61 62 63 63 63 64 67 67 68 67 64 60 56 50 43 38 34 28 23 18 18 20 20 18 18
50 50 49 54 65 68 69 69 70 69 68 66 66 67 67 68 67 63 57 50 47 43 39 33 26 18 19 24 24 24 22 19
47 51 51 48 59 73 74 76 71 69 68 70 70 70 68 66 63 60 56 53 49 43 37 30 20 23 27 29 28 26 23 20
38 40 45 46 52 70 78 75 70 70 73 75 73 72 69 66 63 60 57 54 49 42 34 25 29 27 37 32 29 28 26 24
33 32 34 40 46 60 71 75 72 75 77 77 75 72 70 67 65 64 60 55 48 37 29 36 26 45 38 35 32 32 30 28
21 22 27 33 41 53 62 68 72 78 80 78 77 75 71 69 67 65 62 55 39 34 45 28 46 49 44 40 38 38 36 32
10 8 13 23 34 44 50 60 70 75 77 77 77 75 74 73 71 65 54 40 40 52 36 43 57 51 44 44 42 42 42 37
9 7 6 12 22 32 40 50 62 71 73 74 74 76 76 75 70 61 50 56 59 47 49 57 56 51 51 49 46 50 49 44
12 10 7 5 8 17 27 40 51 60 66 71 74 72 70 70 71 70 67 65 64 59 52 60 55 53 54 54 53 59 53 50
13 11 10 8 5 11 24 36 47 55 61 65 68 75 78 79 79 70 75 74 65 50 64 62 59 58 57 56 63 63 55 54
16 13 9 6 7 11 20 33 45 53 60 66 70 74 77 76 74 73 71 70 66 63 60 62 60 58 59 61 66 58 56 55
Wind_Direction_850mb
254 253 248 238 233 229 227 226 228 228 230 232 234 236 237 233 229 224 232 232 235 236 239 229 225 236 237 225 231 240 238 245
258 251 241 230 227 225 223 222 223 224 225 230 233 235 235 230 225 220 227 224 226 229 227 231 232 227 225 228 218 213 221 233
247 236 225 220 220 221 220 221 221 224 227 231 234 235 232 226 215 214 215 217 222 225 224 230 217 219 215 206 201 204 222 241
232 224 219 215 220 224 226 226 227 229 231 231 228 224 219 209 203 205 208 209 211 220 217 205 202 198 193 192 203 216 234 265
234 226 218 217 222 226 229 228 227 225 221 215 211 206 201 195 199 202 201 207 210 203 197 193 188 187 191 195 214 236 257 276
237 227 224 222 221 225 225 224 219 214 209 202 198 193 191 195 197 195 204 205 198 194 188 186 185 189 196 211 229 246 264 280
247 235 230 228 225 222 220 218 214 212 206 199 195 191 193 195 197 198 198 193 192 188 188 186 190 194 205 221 238 252 270 284
261 244 236 233 228 221 217 215 213 210 207 203 199 196 195 196 197 196 193 190 188 187 189 192 197 202 213 227 240 263 276 279
278 257 245 235 227 221 217 216 213 210 207 205 202 199 197 197 195 193 192 191 191 191 192 196 203 214 221 238 257 265 264 255
273 271 254 242 231 223 219 216 213 210 207 204 201 198 196 194 193 193 193 194 195 194 198 203 211 216 227 254 261 255 246 237
274 275 266 245 234 227 222 218 216 211 207 203 200 199 199 198 196 197 196 197 198 200 201 207 212 228 246 256 252 246 237 241
269 267 266 251 233 228 225 224 220 213 207 205 203 203 202 201 201 199 198 198 201 204 208 212 232 236 254 247 244 241 245 257
276 269 258 250 239 230 228 226 219 213 209 206 204 203 202 203 201 200 201 203 204 207 211 235 230 262 247 242 241 247 256 264
280 272 259 248 241 235 231 226 219 213 210 207 205 205 204 204 205 205 204 206 207 214 233 229 257 251 242 241 243 248 253 260
285 273 263 253 243 235 232 226 219 215 211 208 207 206 207 207 209 210 209 206 216 231 231 242 256 242 241 243 245 248 254 261
311 283 257 254 250 243 234 225 218 214 212 209 209 210 210 210 212 211 207 231 243 229 232 254 248 244 243 246 248 253 259 265
32 3 309 269 255 246 234 224 218 214 212 212 213 213 213 214 210 208 237 235 225 231 245 251 244 240 245 249 251 256 262 267
50 39 15 330 267 241 231 222 218 219 219 218 219 219 218 219 215 245 231 223 233 227 245 247 248 246 249 252 255 259 264 267
27 21 13 358 329 250 230 225 220 220 223 226 228 227 225 227 234 227 225 231 225 246 248 246 247 248 250 253 256 261 265 267
20 20 18 355 313 268 250 242 235 234 234 233 234 232 231 233 233 232 233 232 236 239 240 249 250 252 253 254 260 263 265 269